Location: Champseau
(45.8333°N, 1.7667°E)
Time: 06:13:52
(UTC+00:00)

Envisat - Pass Details

Date: 27 September 2021
Orbit: 764 x 766 km, 98.2° (Epoch: 23 October)

Event Time Altitude Azimuth Distance (km) Brightness Sun altitude
Rises 04:22:27 0° 21° (NNE) 3,242 6.8 -15.3°
Reaches altitude 10° 04:24:59 10° 31° (NNE) 2,311 6.1 -14.9°
Maximum altitude 04:29:35 34° 96° (E) 1,257 4.8 -14.1°
Drops below altitude 10° 04:34:09 10° 160° (SSE) 2,294 5.6 -13.3°
Sets 04:36:38 0° 170° (S) 3,215 6.2 -12.9°
